DELTA 1 DEB

Satellite information

Favourite Embed

Satellite Type and Status

DEBRISIN ORBIT

Key statistics

Satellite DELTA 1 DEB at a glance.

Uptime

18392

Days in orbit

Revolutions

≈ 13.4

Per day

Orbit

SSO

Sun Synchronous Orbit

Inclination

99.9

Latest

Satellite identification and parameters

Extended collection of information and parameters for DELTA 1 DEB.

Object identification

Identified? True

Debris? True

Object name: DELTA 1 DEB

International designator: 1975-052GH

Object number (NORAD): 21512

Object ID (CCSDS): 21512

Country: UNITED STATES OF AMERICA (US)

Current information (Y/N): Y

RCS size: SMALL

Orbital parameters

Period: 107.422 minutes

Inclination: 99.9118 deg

SMA: 7485.507 km

Apoapsis: 1135.428 km

Periapsis: 1079.315 km

RAAN: 187.5279 deg

Eccentricy: 0.0037481

Argument of periapsis: 59.4263 deg

Mean anomaly: 6.1719 deg

Mean motion: 13.40512764 rev/day

Mean motion (dot): 0.00000182 rev/day2

B* drag term: 0.00040913661 1/REarth

Two-line elements (TLE)

Creation date: Oct. 19, 2025, 2:20 a.m.

Reference frame: TEME

Reference center: EARTH

Epoch: Oct. 18, 2025, 4:04 p.m. UTC

TLE line 0: 0 DELTA 1 DEB

TLE line 1: 1 21512U 75052GH 25291.67008041 .00000182 00000-0 40914-3 0 9997

TLE line 2: 2 21512 99.9118 187.5279 0037481 59.4263 6.1719 13.40512764676456

Live tracking on map

Real-time ground track for satellite DELTA 1 DEB.

In-orbit conjunctions

A list of the most updated potential collisions computed for object DELTA 1 DEB.

Target Orbit TCA Probability of collision Miss distance Type
COSMOS 1275 DEB LEO 2025-03-23 06:00:57 0.000281723 70.0 (m) DEBRIS
COSMOS 970 LEO 2024-09-12 10:48:04 0.001237924 92.0 (m) PAYLOAD

Associated space launch

Experimental meteorological satellite

DELTA 1 DEB was lifted into orbit during the mission ‘Delta 2910 | Nimbus 6’, on board a Delta 2910 space rocket.

The launch took place on June 12, 1975, 8:12 a.m. from Space Launch Complex 2W.

For more information about the launch, click the button.

Launch to space Delta 2910 | Nimbus 6
Delta 2910 | Nimbus 6

Agency: N/A

Status: Launch Successful

Launch date: June 12, 1975, 8:12 a.m. UTC

Rocket: Delta 2910

Launch pad: Space Launch Complex 2W

Location: Vandenberg SFB, CA, USA

...

Latest news about this satellite

There are no fresh news available about this satellite. Check back as we update our databases every day.


Newsletter sign-up

Weekly statistics, charts and insights to help you stay on top of the space industry.